Showing default

FLOCK 4Q 33, 58308

Orbit data source: Space-Track

FLOCK 4Q 33, 58308 is a payload satellite owned by Planet (US) in SSO that was launched on Sat, 11 Nov 2023 UTC via an FALCON 9 launch vehicle from the Air Force Western Test Range (AFWTR). Payload-class satellites include a variety of spacecraft equipped with specific instruments for various scientific and technological missions. These include communications satellites like Starlink; space stations such as the ISS; scientific satellites like the Hubble; Earth observation satellites from companies like Planet Labs, Umbra, and HawkEye 360; GPS; miniature CubeSats for education and research; and military/defense satellites.

Not visible in the next 10 days
Identifier
58308, 2023-174BE
Orbit
SSO
Country
Flag of USUS
Related business
Manufacturer
Planet
Mission
Operational Commercial Imaging
Bus & Motor
CUBESAT 3U, Unknown motor
Mass
5.7 kg wet, 5.7 kg dry
Launch date (UTC)
2023-11-11 (2 years ago)
Launch vehicle
FALCON 9
Launch site
Air Force Western Test Range (AFWTR)
Object type
Payload
Rocket body
Debris
Shape & HBR
Box + 2 Pan, 1.0 m
Radar Cross Section
0.072 m², Medium (>0.1 m² and < 1m²)

Expand to show TLE details & history
Last TLE update: 8 hours ago

TLE from 8 hours ago
0 FLOCK 4Q 33
1 58308U 23174BE  26126.76788253  .00023383  00000-0  34749-3 0  9993
2 58308  97.3848 217.3931 0004505 269.0836  90.9902 15.55172008139397
Epoch: 2026-05-06T18:25Z
TLE epoch observation values (Epoch: 2026-05-06T18:25:45.050Z)
Latitude
-0.00003°
Longitude
76.33175°
Altitude
404.845 km
Speed
7.668 km/s
True Right ascension
14h 29m 34s
True Declination
0° 00' 00"
Sunlit
Object was in full shadow at epoch
Visualization orbit readout
Latitude
Unknown
Longitude
Unknown
Altitude
Unknown
Speed
Unknown
Apparent Right ascension
Unknown
Apparent Declination
Unknown
Sunlit
N/A
Visualization observer readout
Local Sidereal Time
10:21:56
Azimuth
Unknown
Elevation
Unknown
Doppler factor
Unknown
Orbital elements
Apogee altitude
401.624 km
Perigee altitude
395.518 km
Semi-major axis
6,776.708 km
Eccentricity
0.00045
Inclination
97.3848°
RAAN
217.3931°
Arg. of periapsis
269.0836°
True anomaly
91.04182°
Mean anomaly
90.9902°
Eccentric anomaly
91.01601°
Mean motion
3.89059 °/min
Orbital period
92.53 mins
BSTAR
0.00034749
Loading maneuver chart data...
Computing Atmospheric mass density...
Loading historical data...
Loading historical data...
Loading historical data...
Loading historical data...
Loading historical data...
Loading historical data...
Loading historical data...

Documentation

Showing up to 5 results
|